STARLINK-1707, 46359

Orbit data source: Space-Track

STARLINK-1707, 46359 is a payload satellite owned by SpaceX/Seattle (US) in LEO that was launched on Thu, 03 Sep 2020 UTC via an FALCON 9 launch vehicle from the Air Force Eastern Test Range (AFETR). Payload-class satellites include a variety of spacecraft equipped with specific instruments for various scientific and technological missions. These include communications satellites like Starlink; space stations such as the ISS; scientific satellites like the Hubble; Earth observation satellites from companies like Planet Labs, Umbra, and HawkEye 360; GPS; miniature CubeSats for education and research; and military/defense satellites.

Not visible in the next 10 days
Identifier
46359, 2020-062AL
Orbit
LEO
Country
Flag of USUS
Related business
Manufacturer
SpaceX/Seattle
Mission
Partially operational Commercial Communications
Bus & Motor
STARLINK, Unknown motor
Mass
260 kg wet, ~248 kg dry
Launch date (UTC)
2020-09-03 (6 years ago)
Launch vehicle
FALCON 9
Launch site
Air Force Eastern Test Range (AFETR)
Object type
Payload
Rocket body
Debris
Shape & HBR
Box + 1 Pan, 10.1 m
Radar Cross Section
13.562 m², Large (>1 m²)

Expand to show TLE details & history
Last TLE update: 6 hours ago

TLE from 6 hours ago
0 STARLINK-1707
1 46359U 20062AL  26176.25002315  .00525356  12660-3  11885-2 0  9996
2 46359  53.0120  96.5127 0002749 123.3611 341.7751 15.97037304  5977
Epoch: 2026-06-25T06:00Z
TLE epoch observation values (Epoch: 2026-06-25T06:00:02.000Z)
Latitude
50.60557°
Longitude
-152.67109°
Altitude
286.818 km
Speed
7.743 km/s
True Right ascension
14h 02m 55s
True Declination
50° 25' 29"
Sunlit
Object was in daylight at epoch
Visualization orbit readout
Latitude
Unknown
Longitude
Unknown
Altitude
Unknown
Speed
Unknown
Apparent Right ascension
Unknown
Apparent Declination
Unknown
Sunlit
N/A
Visualization observer readout
Local Sidereal Time
23:08:54
Azimuth
Unknown
Elevation
Unknown
Doppler factor
Unknown
Orbital elements
Apogee altitude
284.763 km
Perigee altitude
281.101 km
Semi-major axis
6,661.069 km
Eccentricity
0.00027
Inclination
53.012°
RAAN
96.5127°
Arg. of periapsis
123.3611°
True anomaly
341.76524°
Mean anomaly
341.7751°
Eccentric anomaly
341.77017°
Mean motion
3.99234 °/min
Orbital period
90.17 mins
BSTAR
0.0011885
Loading maneuver chart data...
Computing Atmospheric mass density...

Documentation

Showing up to 5 results
|